Location: Maiden
(35.5760°N, 81.2120°W)
Time: 01:20:08
(UTC-04:00)

Lacrosse 5 - Pass Details

Date: 14 June 2018
Orbit: 714 x 724 km, 57.0° (Epoch: 20 August)

Event Time Altitude Azimuth Distance (km) Brightness Sun altitude
Exits shadow 23:22:57 35° 71° (ENE) 1,153 2.8 -24.4°
Drops below altitude 10° 23:26:03 10° 50° (NE) 2,196 4.5 -24.7°
Sets 23:28:29 0° 46° (NE) 3,120 5.3 -25.0°
